Weather History for Hyannis, MA

Change the Weather History Date:

Tuesday, February 14, 2012

  Actual Average Record
Temperature  
Mean Temperature 31 °F -  
Max Temperature 41 °F 38 °F 55 °F (1949)
Min Temperature 21 °F 19 °F -3 °F (1967)
Degree Days  
Heating Degree Days 34    
Moisture  
Dew Point 24 °F    
Average Humidity 72    
Maximum Humidity 93    
Minimum Humidity 33    
Precipitation  
Precipitation 0.00 in - - ()
Sea Level Pressure  
Sea Level Pressure 30.08 in    
Wind  
Wind Speed 2 mph (SSW)    
Max Wind Speed 8 mph    
Max Gust Speed -    
Visibility 10 miles    
Events      
Averages and records for this station are not official NWS values.
T = Trace of Precipitation, MM = Missing Value Source: NWS Daily Summary

Daily Weather History Graph

Daily Weather History Graph

Search for Another Location

Airport:

Trip Planner

Search our weather history database for the weather conditions in past years. The results will help you decide how hot, cold, wet, or windy it might be!

Date:

Astronomy

Feb. 14, 2012 Rise Set
Actual Time 6:38 AM EST 5:12 PM EST
Civil Twilight 6:10 AM EST 5:41 PM EST
Nautical Twilight 5:37 AM EST 6:13 PM EST
Astronomical Twilight 5:05 AM EST 6:46 PM EST
Moon 12:21 AM EST (2/14) 10:13 AM EST (2/14)
Length of Visible Light 11h 31m
Length of Day
10h 34m
Waning Gibbous, 50% of the Moon is Illuminated
Feb 14
Waning Gibbous
Feb 14
Last Quarter
Feb 21
New
Feb 29
First Quarter
Mar 8
Full

Hourly Weather History & Observations

Time (EST) Temp. Windchill Dew Point Humidity Pressure Visibility Wind Dir Wind Speed Gust Speed Precip Events Conditions
12:56 AM 26.1 °F - 21.0 °F 81% 30.00 in 10.0 mi Calm Calm - N/A   Clear
1:56 AM 24.1 °F - 19.9 °F 84% 30.01 in 10.0 mi Calm Calm - N/A   Clear
2:56 AM 23.0 °F - 19.4 °F 86% 30.02 in 10.0 mi Calm Calm - N/A   Clear
3:56 AM 23.0 °F - 19.0 °F 85% 30.04 in 10.0 mi Calm Calm - N/A   Clear
4:56 AM 21.9 °F - 19.9 °F 92% 30.05 in 10.0 mi Calm Calm - N/A   Clear
5:56 AM 21.0 °F - 17.1 °F 85% 30.07 in 10.0 mi Calm Calm - N/A   Clear
6:56 AM 21.2 °F - 19.4 °F 93% 30.07 in 10.0 mi Calm Calm - N/A   Clear
7:56 AM 28.0 °F - 24.1 °F 85% 30.10 in 10.0 mi Calm Calm - N/A   Partly Cloudy
8:56 AM 36.0 °F 33.3 °F 27.0 °F 70% 30.11 in 10.0 mi West 3.5 mph - N/A   Overcast
9:56 AM 39.0 °F 35.7 °F 19.0 °F 45% 30.13 in 10.0 mi SW 4.6 mph - N/A   Overcast
10:56 AM 41.0 °F 39.0 °F 15.1 °F 35% 30.12 in 10.0 mi SSW 3.5 mph - N/A   Overcast
11:56 AM 41.0 °F 36.4 °F 15.1 °F 35% 30.12 in 10.0 mi South 6.9 mph - N/A   Overcast
12:56 PM 39.9 °F 34.5 °F 12.9 °F 33% 30.09 in 10.0 mi South 8.1 mph - N/A   Overcast
1:56 PM 39.9 °F 36.7 °F 21.0 °F 47% 30.08 in 10.0 mi SSE 4.6 mph - N/A   Overcast
2:56 PM 41.0 °F 37.1 °F 21.0 °F 45% 30.08 in 10.0 mi South 5.8 mph - N/A   Overcast
3:56 PM 39.9 °F 36.7 °F 26.1 °F 58% 30.07 in 10.0 mi South 4.6 mph - N/A   Overcast
4:56 PM 39.2 °F - 30.2 °F 70% 30.07 in 10.0 mi Calm Calm - N/A   Overcast
5:56 PM 37.9 °F - 30.9 °F 76% 30.08 in 10.0 mi Calm Calm - N/A   Clear
6:56 PM 32.0 °F - 27.0 °F 82% 30.10 in 10.0 mi Calm Calm - N/A   Clear
7:56 PM 39.2 °F 35.0 °F 35.6 °F 87% 30.09 in 10.0 mi SSW 5.8 mph - N/A   Overcast
8:56 PM 41.0 °F 37.1 °F 36.0 °F 82% 30.09 in 10.0 mi SSW 5.8 mph - N/A   Overcast
9:56 PM 39.9 °F 35.8 °F 37.0 °F 89% 30.10 in 10.0 mi South 5.8 mph - N/A   Overcast
10:56 PM 41.0 °F 36.4 °F 37.0 °F 86% 30.10 in 10.0 mi South 6.9 mph - N/A   Overcast
11:56 PM 39.9 °F 35.1 °F 37.0 °F 89% 30.11 in 10.0 mi South 6.9 mph - N/A   Overcast